Location: Pine Mountain Observatory
(43.7910°N, 120.9377°W)
Time: 00:58:14
(UTC-08:00)

Cosmos 1867 - Visible Passes

Search period start: 27 February 2017 00:00
Search period end: 09 March 2017 00:00
Orbit: 776 x 800 km, 65.0° (Epoch: 26 February)

Date Brightness Start Highest point End Pass type
(mag) Time Alt. Az. Time Alt. Az. Time Alt. Az.
27 Feb 5.8 03:01:05 21° NE 03:01:05 21° NE 03:02:49 10° NE visible
27 Feb 5.1 04:41:46 22° NW 04:41:46 22° NW 04:45:46 10° NNE visible
28 Feb 6.3 02:30:23 14° NE 02:30:23 14° NE 02:31:07 10° NE visible
28 Feb 5.1 04:11:03 24° NNW 04:11:03 24° NNW 04:14:19 10° NNE visible
01 Mar 5.4 03:40:18 23° N 03:40:18 23° N 03:42:49 10° NNE visible
01 Mar 5.8 05:22:13 10° NNW 05:23:14 10° NNW 05:24:15 10° N visible
02 Mar 5.7 03:09:32 20° NNE 03:09:32 20° NNE 03:11:17 10° NNE visible
02 Mar 5.7 04:50:11 12° NW 04:51:11 12° NNW 04:53:22 10° N visible
03 Mar 6.1 02:38:44 15° NNE 02:38:44 15° NNE 02:39:44 10° NNE visible
03 Mar 5.6 04:19:23 14° NNW 04:19:23 14° NNW 04:22:08 10° N visible
04 Mar 6.5 02:07:54 11° NNE 02:07:54 11° NNE 02:08:08 10° NNE visible
04 Mar 5.7 03:48:33 16° NNW 03:48:33 16° NNW 03:50:48 10° N visible
05 Mar 5.8 03:17:42 16° N 03:17:42 16° N 03:19:23 10° NNE visible
06 Mar 6.1 02:46:49 15° N 02:46:49 15° N 02:47:57 10° NNE visible
07 Mar 6.4 02:15:55 12° NNE 02:15:55 12° NNE 02:16:27 10° NNE visible
07 Mar 6.0 03:56:34 10° NNW 03:56:59 10° NNW 03:57:31 10° NNW visible
08 Mar 6.0 03:25:39 12° NNW 03:25:39 12° NNW 03:26:55 10° N visible
